Temp
15 13 13 13 14 14 14 14 14 14 14 14 14 14 13 13 14 14 14 15 15 15
13 13 13 13 14 14 14 14 14 14 14 14 14 14 14 13 13 14 15 15 14 14
11 11 13 13 12 13 13 13 13 13 13 13 13 13 13 13 13 13 13 13 13 14
9 8 9 9 9 10 11 11 11 11 12 12 12 12 13 13 13 13 14 14 13 13
6 6 8 8 9 8 9 10 10 9 10 10 10 9 10 11 11 11 11 11 13 13
5 7 6 7 7 8 8 8 8 8 9 9 9 8 8 9 9 9 10 9 9 10
6 6 6 7 7 7 8 7 7 7 7 7 7 8 8 8 8 8 8 8 8 9
5 6 6 6 6 6 6 6 6 6 6 6 6 5 5 5 6 6 7 7 7 8
5 5 5 5 5 5 5 5 5 5 5 5 4 3 4 3 4 4 5 5 6 6
5 4 4 4 4 3 3 3 3 3 3 3 3 3 2 2 3 3 3 3 3 3
3 3 3 3 2 2 2 2 2 2 2 2 3 2 2 2 2 2 2 2 3 3
2 2 2 2 2 2 2 2 2 2 2 2 2 2 3 1 1 1 1 1 2 3
2 2 1 1 1 0 0 -0 -0 -0 -0 -0 -0 0 -0 0 1 0 0 0 1 1
1 1 0 -0 -1 -1 -1 -2 -2 -2 -2 -2 -2 -2 -1 -0 -0 -0 -0 -0 -1 -0
Height
736 739 742 745 746 747 747 748 749 749 751 753 755 757 760 763 767 770 773 775 778 781
735 737 739 740 741 742 742 744 745 747 747 749 750 751 754 757 762 766 767 770 775 776
733 735 734 735 737 738 740 738 742 745 747 750 750 751 755 755 758 761 765 768 770 770
736 737 736 735 731 732 736 738 739 742 744 748 750 751 752 753 753 756 759 761 762 762
744 740 732 733 737 741 740 743 744 746 746 748 750 751 751 751 753 754 755 755 754 754
751 736 742 744 744 749 747 746 750 750 750 751 751 754 755 753 751 751 750 754 750 747
748 747 749 751 752 752 751 752 753 752 754 753 753 752 751 750 750 750 750 750 748 747
757 756 758 758 757 757 756 756 756 757 757 756 755 755 754 753 752 750 748 748 747 746
762 761 761 761 761 761 760 759 758 757 757 756 755 755 754 752 751 749 747 745 743 742
765 765 765 764 764 763 762 761 760 758 758 757 756 753 753 752 749 748 746 743 740 738
768 767 767 765 764 764 763 763 760 759 758 755 754 752 750 749 746 744 742 740 738 736
770 768 767 765 764 764 763 761 760 758 756 754 752 750 748 745 743 741 740 738 736 733
769 768 768 768 766 765 764 762 760 758 757 754 751 749 747 745 742 740 737 734 732 729
770 769 768 767 765 764 762 759 757 755 753 750 747 745 744 742 739 736 734 730 728 725
Wind_Speed
20 19 19 19 22 23 23 24 27 30 31 34 33 32 30 28 30 30 29 26 26 26
10 14 18 20 23 24 21 17 14 11 16 14 18 19 20 23 26 27 26 28 33 34
7 4 7 11 12 14 13 17 15 12 8 6 4 3 6 6 11 14 18 23 25 26
24 22 27 27 27 25 22 20 20 15 12 6 1 6 7 9 12 17 22 28 26 28
21 23 34 33 29 24 24 20 19 16 14 12 9 11 6 6 6 5 8 11 20 23
18 36 33 30 28 24 24 23 18 17 16 14 14 10 8 8 10 11 10 12 14 13
29 30 28 27 26 24 23 21 21 20 18 16 14 14 15 14 12 12 13 14 14 14
25 25 24 23 23 22 22 21 19 18 18 17 17 17 16 15 15 16 17 17 16 16
22 22 22 21 20 20 20 20 19 20 20 21 19 17 16 15 17 18 18 19 21 21
20 19 19 18 18 19 19 18 19 19 19 20 20 19 17 16 16 18 19 21 22 23
17 17 16 17 17 17 17 18 19 19 20 21 20 20 18 17 19 20 20 21 20 19
16 15 15 17 17 17 17 19 19 18 19 20 21 21 21 20 18 15 16 16 16 17
13 12 11 10 10 11 12 12 14 15 15 15 16 15 15 16 15 17 18 19 20 21
11 10 8 8 9 12 13 14 15 15 18 17 16 17 17 17 19 19 20 20 21 20
Wind_Direction
215 220 230 237 232 228 223 238 241 228 231 233 225 222 216 216 220 233 239 243 255 252
233 240 242 237 232 223 209 197 191 201 216 204 201 205 222 220 219 229 238 245 256 255
152 162 191 186 179 169 184 171 170 173 168 208 250 230 265 261 223 224 235 241 247 249
83 79 93 85 76 79 80 73 81 80 87 82 4 290 297 297 293 275 268 264 256 260
72 74 73 69 65 64 65 59 57 55 59 49 36 23 20 316 297 330 344 332 258 246
64 72 74 75 72 70 71 68 63 60 56 49 45 39 26 12 356 341 337 308 309 311
60 65 65 66 65 62 59 58 52 49 46 42 31 19 11 4 352 338 327 320 318 311
65 65 64 63 60 57 53 50 46 41 37 33 30 21 7 356 349 342 331 321 317 312
64 60 57 53 50 47 44 39 35 31 26 23 22 11 2 354 344 341 334 325 317 312
54 53 50 48 44 40 34 30 28 24 16 10 7 2 355 352 342 335 330 328 323 319
48 46 43 39 36 29 25 22 20 15 8 1 359 356 349 344 336 332 329 324 321 313
31 30 27 27 22 18 11 9 6 1 356 352 347 346 341 339 336 329 323 322 316 309
16 17 16 13 12 8 2 355 353 349 349 345 340 341 330 328 325 321 321 319 312 307
9 5 3 353 355 353 350 344 346 340 348 354 355 339 332 330 328 321 316 316 313 310